FW3268 Weather Reports


Display with metric or nautical units.
time (UTC)temp
F
wind
direction
speed
MPH
gust
MPH
rain 1hr
in
rain 24hr
in
rain mn
in
humidity
%
barometer
mb
20260904093000 74 252 0.0 0.0 0.00 0.00 0.00 88 1014.2
20260904091500 74 252 0.0 0.0 0.00 0.00 0.00 87 1014.0
20260904090003 74 233 0.0 0.0 0.00 0.00 0.00 87 1013.9
20260904084459 74 255 0.0 0.0 0.00 0.00 0.00 86 1013.9
20260904081459 75 211 0.0 0.0 0.00 0.00 0.00 87 1013.9
20260904080002 75 242 0.0 0.0 0.00 0.00 0.00 88 1014.0
20260904074459 74 243 0.0 0.0 0.00 0.00 0.00 94 1014.4
20260904073001 73 130 0.0 0.0 0.00 0.00 0.00 93 1014.7
20260904071459 73 130 0.0 0.0 0.00 0.00 0.00 93 1014.6
20260904070001 73 130 0.0 0.0 0.00 0.00 0.00 94 1014.7
20260904064502 73 130 0.0 0.0 0.00 0.00 0.00 94 1014.8
20260904062958 73 131 0.0 0.0 0.00 0.00 0.00 93 1015.0
20260904060001 73 130 0.0 0.0 0.00 0.00 0.00 93 1015.2
20260904054458 73 130 0.0 0.0 0.00 0.00 0.00 93 1015.3
20260904053000 74 131 0.0 0.0 0.00 0.00 0.00 92 1015.3
20260904050003 74 130 0.0 0.0 0.00 0.00 0.00 92 1015.3
20260904044500 74 130 0.0 0.0 0.00 0.00 0.00 92 1015.3
20260904043001 74 130 0.0 0.0 0.00 0.00 0.00 92 1015.2
20260904041501 74 135 0.0 0.0 0.00 0.00 0.00 92 1015.1
20260904040009 74 143 0.0 0.0 0.00 0.00 0.00 92 1015.1
20260904034502 75 127 0.0 0.0 0.00 0.00 0.00 92 1014.9
20260904033001 75 111 0.0 0.0 0.00 0.00 0.00 90 1015.0
20260904031501 76 110 0.0 0.0 0.00 0.00 0.00 91 1014.9
20260904030004 76 128 0.0 0.0 0.00 0.00 0.00 91 1015.0
20260904024501 76 139 0.0 0.0 0.00 0.00 0.00 90 1015.2
20260904023000 76 139 0.0 0.0 0.00 0.00 0.00 90 1015.3
20260904021500 76 139 0.0 0.0 0.00 0.00 0.00 90 1015.1
20260904020004 76 139 0.0 0.0 0.00 0.00 0.00 90 1015.0
20260904013001 78 107 0.0 0.0 0.00 0.00 0.00 87 1014.8
20260904011501 78 106 0.0 0.0 0.00 0.00 0.00 85 1014.9
20260904010003 79 106 0.0 0.0 0.00 0.00 0.00 82 1014.8
20260904004500 80 56 0.0 0.0 0.00 0.00 0.00 78 1014.7
20260904003001 82 56 0.0 0.0 0.00 0.00 0.00 76 1014.7
20260904001500 83 30 0.0 0.0 0.00 0.00 0.00 71 1014.7
20260904000005 85 318 0.0 0.0 0.00 0.00 0.00 68 1014.5
20260903234500 87 318 0.0 0.0 0.00 0.00 0.00 73 1014.5
20260903233001 89 273 0.0 0.0 0.00 0.00 0.00 72 1014.1
20260903231501 89 273 0.0 0.0 0.00 0.00 0.00 71 1014.1
20260903230003 90 271 0.0 0.0 0.00 0.00 0.00 68 1013.8
20260903224500 91 274 0.0 0.0 0.00 0.00 0.00 66 1013.7
20260903223002 91 251 0.0 0.0 0.00 0.00 0.00 63 1013.6
20260903221459 92 283 0.0 0.0 0.00 0.00 0.00 62 1013.6
20260903220005 92 262 0.0 0.0 0.00 0.00 0.00 63 1013.6
20260903214500 92 264 0.0 0.0 0.00 0.00 0.00 61 1013.7
20260903211500 92 277 0.0 0.0 0.00 0.00 0.00 64 1013.8
20260903210003 92 302 0.0 0.0 0.00 0.00 0.00 63 1013.7
20260903203001 92 298 0.0 0.0 0.00 0.00 0.00 63 1013.7
20260903201500 92 285 0.0 0.0 0.00 0.00 0.00 64 1013.7
20260903194500 93 258 0.0 0.0 0.00 0.00 0.00 64 1014.2
20260903193002 93 262 0.0 0.0 0.00 0.00 0.00 66 1014.5
20260903191500 93 279 0.0 0.0 0.00 0.00 0.00 62 1014.8
20260903190003 92 284 0.0 0.0 0.00 0.00 0.00 64 1014.9
20260903184500 93 239 0.0 0.0 0.00 0.00 0.00 64 1015.0
20260903183002 92 238 0.0 0.0 0.00 0.00 0.00 63 1015.0
20260903181500 92 276 0.0 0.0 0.00 0.00 0.00 62 1015.1
20260903180003 92 240 0.0 0.0 0.00 0.00 0.00 64 1015.0
20260903174500 91 264 0.0 0.0 0.00 0.00 0.00 66 1015.2
20260903173000 91 264 0.0 0.0 0.00 0.00 0.00 67 1015.1
20260903170002 91 264 0.0 0.0 0.00 0.00 0.00 65 1015.6
20260903164500 90 246 0.0 0.0 0.00 0.00 0.00 65 1015.7
20260903163010 90 264 0.0 0.0 0.00 0.00 0.00 68 1015.8
20260903161500 89 280 0.0 0.0 0.00 0.00 0.00 68 1016.0
20260903160004 89 275 0.0 0.0 0.00 0.00 0.00 69 1016.0
20260903154501 88 286 0.0 0.0 0.00 0.00 0.00 71 1016.1
20260903153001 88 217 0.0 0.0 0.00 0.00 0.00 73 1016.1
20260903151500 87 259 0.0 0.0 0.00 0.00 0.00 73 1016.0
20260903144501 86 287 0.0 0.0 0.00 0.00 0.00 76 1016.0
20260903143000 84 265 0.0 0.0 0.00 0.00 0.00 77 1015.9
20260903141500 83 264 0.0 0.0 0.00 0.00 0.00 78 1015.8
20260903140002 82 291 0.0 0.0 0.00 0.00 0.00 80 1015.9
20260903134500 81 252 0.0 0.0 0.00 0.00 0.00 81 1016.0
20260903131459 79 269 0.0 0.0 0.00 0.00 0.00 86 1016.3
20260903130002 78 233 0.0 0.0 0.00 0.00 0.00 86 1016.3
20260903122959 76 219 0.0 0.0 0.00 0.00 0.00 88 1016.3
20260903120004 76 264 0.0 0.0 0.00 0.00 0.00 87 1016.2
20260903114459 75 253 0.0 0.0 0.00 0.00 0.00 87 1016.1
20260903112959 75 248 0.0 0.0 0.00 0.00 0.00 87 1016.0
20260903111459 75 267 0.0 0.0 0.00 0.00 0.00 88 1015.9
20260903110002 76 264 0.0 0.0 0.00 0.00 0.00 86 1015.9
20260903104459 76 266 0.0 0.0 0.00 0.00 0.00 86 1015.7
20260903102959 76 278 0.0 0.0 0.00 0.00 0.00 86 1015.7
20260903101459 75 272 0.0 0.0 0.00 0.00 0.00 88 1015.7
20260903100002 74 244 0.0 0.0 0.00 0.00 0.00 90 1015.6